TimeMDT,TemperatureF,Dew PointF,Humidity,Sea Level PressureIn,VisibilityMPH,Wind Direction,Wind SpeedMPH,Gust SpeedMPH,PrecipitationIn,Events,Conditions,WindDirDegrees,DateUTC
12:52 AM,54.0,19.0,25,29.95,10.0,NNW,3.5,-,N/A,,Mostly Cloudy,340,2012-11-03 06:52:00
1:52 AM,55.0,18.0,23,29.94,10.0,Calm,Calm,-,N/A,,Mostly Cloudy,0,2012-11-03 07:52:00
2:52 AM,57.0,21.0,25,29.94,10.0,ENE,17.3,20.7,N/A,,Scattered Clouds,70,2012-11-03 08:52:00
3:52 AM,55.9,21.9,27,29.96,10.0,East,12.7,17.3,N/A,,Mostly Cloudy,80,2012-11-03 09:52:00
4:03 AM,55.4,23.0,29,30.14,10.0,ENE,20.7,-,N/A,,Mostly Cloudy,70,2012-11-03 10:03:00
4:52 AM,55.0,21.0,27,29.98,10.0,East,13.8,18.4,N/A,,Mostly Cloudy,80,2012-11-03 10:52:00
5:52 AM,54.0,24.1,31,30.00,10.0,East,17.3,25.3,N/A,,Mostly Cloudy,80,2012-11-03 11:52:00
6:52 AM,53.1,24.1,32,30.03,10.0,ENE,11.5,-,N/A,,Mostly Cloudy,60,2012-11-03 12:52:00
7:52 AM,52.0,25.0,35,30.06,10.0,East,13.8,-,N/A,,Mostly Cloudy,90,2012-11-03 13:52:00
8:52 AM,54.0,25.0,33,30.08,10.0,East,10.4,-,N/A,,Mostly Cloudy,100,2012-11-03 14:52:00
9:52 AM,53.1,23.0,31,30.12,10.0,North,4.6,-,N/A,,Mostly Cloudy,360,2012-11-03 15:52:00
10:52 AM,57.9,24.1,27,30.10,10.0,North,5.8,-,N/A,,Mostly Cloudy,10,2012-11-03 16:52:00
11:52 AM,62.1,25.0,24,30.09,10.0,NW,5.8,-,N/A,,Mostly Cloudy,320,2012-11-03 17:52:00
12:52 PM,64.0,24.1,22,30.06,10.0,WNW,4.6,-,N/A,,Mostly Cloudy,300,2012-11-03 18:52:00
1:52 PM,64.9,23.0,20,30.04,10.0,Calm,Calm,-,N/A,,Mostly Cloudy,0,2012-11-03 19:52:00
2:52 PM,66.9,21.9,18,30.00,10.0,Calm,Calm,-,N/A,,Mostly Cloudy,0,2012-11-03 20:52:00
3:52 PM,66.0,21.0,18,30.00,10.0,SSE,3.5,-,N/A,,Mostly Cloudy,150,2012-11-03 21:52:00
4:52 PM,66.9,21.0,17,30.00,10.0,West,4.6,-,N/A,,Mostly Cloudy,280,2012-11-03 22:52:00
5:52 PM,66.0,21.0,18,30.00,10.0,Calm,Calm,-,N/A,,Mostly Cloudy,0,2012-11-03 23:52:00
6:52 PM,64.0,21.9,20,30.02,10.0,Calm,Calm,-,N/A,,Mostly Cloudy,0,2012-11-04 00:52:00
7:52 PM,55.9,19.0,24,30.06,10.0,ESE,6.9,-,N/A,,Scattered Clouds,110,2012-11-04 01:52:00
8:52 PM,57.0,21.0,25,30.06,10.0,ENE,3.5,-,N/A,,Scattered Clouds,60,2012-11-04 02:52:00
9:52 PM,55.0,21.9,28,30.09,10.0,Calm,Calm,-,N/A,,Scattered Clouds,0,2012-11-04 03:52:00
10:52 PM,51.1,21.9,32,30.10,10.0,Calm,Calm,-,N/A,,Partly Cloudy,0,2012-11-04 04:52:00
11:52 PM,54.0,19.9,26,30.10,10.0,NNW,5.8,-,N/A,,Clear,340,2012-11-04 05:52:00